Year,Month,Day,Hour,Minute,Value (Times are PST for temperature in C)
2011,04,18,00,00,2.50
2011,04,18,00,01,2.50
2011,04,18,00,02,2.50
2011,04,18,00,03,2.50
2011,04,18,00,04,2.50
2011,04,18,00,05,2.50
2011,04,18,00,06,2.50
2011,04,18,00,07,2.50
2011,04,18,00,08,2.50
2011,04,18,00,09,2.50
2011,04,18,00,10,2.50
2011,04,18,00,11,2.50
2011,04,18,00,12,2.40
2011,04,18,00,13,2.40
2011,04,18,00,14,2.40
2011,04,18,00,15,2.40
2011,04,18,00,16,2.40
2011,04,18,00,17,2.40
2011,04,18,00,18,2.40
2011,04,18,00,19,2.40
2011,04,18,00,20,2.40
2011,04,18,00,21,2.30
2011,04,18,00,22,2.30
2011,04,18,00,23,2.30
2011,04,18,00,24,2.30
2011,04,18,00,25,2.20
2011,04,18,00,26,2.20
2011,04,18,00,27,2.20
2011,04,18,00,28,2.20
2011,04,18,00,29,2.20
2011,04,18,00,30,2.20
2011,04,18,00,31,2.20
2011,04,18,00,32,2.20
2011,04,18,00,33,2.20
2011,04,18,00,34,2.20
2011,04,18,00,35,2.20
2011,04,18,00,36,2.20
2011,04,18,00,37,2.20
2011,04,18,00,38,2.10
2011,04,18,00,39,2.10
2011,04,18,00,40,2.10
2011,04,18,00,41,2.10
2011,04,18,00,42,2.00
2011,04,18,00,43,2.00
2011,04,18,00,44,2.00
2011,04,18,00,45,2.00
2011,04,18,00,46,2.00
2011,04,18,00,47,2.00
2011,04,18,00,48,2.00
2011,04,18,00,49,2.00
2011,04,18,00,50,2.00
2011,04,18,00,51,2.10
2011,04,18,00,52,2.10
2011,04,18,00,53,2.10
2011,04,18,00,54,2.10
2011,04,18,00,55,2.10
2011,04,18,00,56,2.20
2011,04,18,00,57,2.20
2011,04,18,00,58,2.20
2011,04,18,00,59,2.20
2011,04,18,01,00,2.20
2011,04,18,01,01,2.20
2011,04,18,01,02,2.30
2011,04,18,01,03,2.20
2011,04,18,01,04,2.20
2011,04,18,01,05,2.20
2011,04,18,01,06,2.20
2011,04,18,01,07,2.20
2011,04,18,01,08,2.20
2011,04,18,01,09,2.20
2011,04,18,01,10,2.10
2011,04,18,01,11,2.10
2011,04,18,01,12,2.10
2011,04,18,01,13,2.10
2011,04,18,01,14,2.10
2011,04,18,01,15,2.10
2011,04,18,01,16,2.10
2011,04,18,01,17,2.00
2011,04,18,01,18,2.00
2011,04,18,01,19,2.00
2011,04,18,01,20,2.00
2011,04,18,01,21,1.90
2011,04,18,01,22,1.90
2011,04,18,01,23,1.80
2011,04,18,01,24,1.80
2011,04,18,01,25,1.80
2011,04,18,01,26,1.80
2011,04,18,01,27,1.80
2011,04,18,01,28,1.70
2011,04,18,01,29,1.70
2011,04,18,01,30,1.70
2011,04,18,01,31,1.70
2011,04,18,01,32,1.70
2011,04,18,01,33,1.70
2011,04,18,01,34,1.70
2011,04,18,01,35,1.70
2011,04,18,01,36,1.70
2011,04,18,01,37,1.80
2011,04,18,01,38,1.70
2011,04,18,01,39,1.80
2011,04,18,01,40,1.80
2011,04,18,01,41,1.80
2011,04,18,01,42,1.80
2011,04,18,01,43,1.80
2011,04,18,01,44,1.80
2011,04,18,01,45,1.80
2011,04,18,01,46,1.80
2011,04,18,01,47,1.80
2011,04,18,01,48,1.80
2011,04,18,01,49,1.80
2011,04,18,01,50,1.80
2011,04,18,01,51,1.80
2011,04,18,01,52,1.80
2011,04,18,01,53,1.90
2011,04,18,01,54,1.90
2011,04,18,01,55,1.90
2011,04,18,01,56,1.90
2011,04,18,01,57,1.90
2011,04,18,01,58,2.00
2011,04,18,01,59,2.00
2011,04,18,02,00,2.00
2011,04,18,02,01,2.00
2011,04,18,02,02,2.00
2011,04,18,02,03,2.10
2011,04,18,02,04,2.10
2011,04,18,02,05,2.10
2011,04,18,02,06,2.10
2011,04,18,02,07,2.10
2011,04,18,02,08,2.10
2011,04,18,02,09,2.20
2011,04,18,02,10,2.20
2011,04,18,02,11,2.20
2011,04,18,02,12,2.30
2011,04,18,02,13,2.30
2011,04,18,02,14,2.40
2011,04,18,02,15,2.50
2011,04,18,02,16,2.60
2011,04,18,02,17,2.70
2011,04,18,02,18,2.70
2011,04,18,02,19,2.80
2011,04,18,02,20,2.80
2011,04,18,02,21,2.80
2011,04,18,02,22,2.80
2011,04,18,02,23,2.80
2011,04,18,02,24,2.80
2011,04,18,02,25,2.80
2011,04,18,02,26,2.70
2011,04,18,02,27,2.70
2011,04,18,02,28,2.70
2011,04,18,02,29,2.60
2011,04,18,02,30,2.60
2011,04,18,02,31,2.60
2011,04,18,02,32,2.60
2011,04,18,02,33,2.60
2011,04,18,02,34,2.60
2011,04,18,02,35,2.50
2011,04,18,02,36,2.50
2011,04,18,02,37,2.50
2011,04,18,02,38,2.50
2011,04,18,02,39,2.50
2011,04,18,02,40,2.50
2011,04,18,02,41,2.50
2011,04,18,02,42,2.50
2011,04,18,02,43,2.50
2011,04,18,02,44,2.50
2011,04,18,02,45,2.50
2011,04,18,02,46,2.50
2011,04,18,02,47,2.50
2011,04,18,02,48,2.50
2011,04,18,02,49,2.50
2011,04,18,02,50,2.50
2011,04,18,02,51,2.40
2011,04,18,02,52,2.50
2011,04,18,02,53,2.40
2011,04,18,02,54,2.40
2011,04,18,02,55,2.40
2011,04,18,02,56,2.40
2011,04,18,02,57,2.40
2011,04,18,02,58,2.40
2011,04,18,02,59,2.40
2011,04,18,03,00,2.40
2011,04,18,03,01,2.40
2011,04,18,03,02,2.40
2011,04,18,03,06,2.50
2011,04,18,03,07,2.50
2011,04,18,03,08,2.50
2011,04,18,03,09,2.50
2011,04,18,03,10,2.50
2011,04,18,03,11,2.60
2011,04,18,03,12,2.60
2011,04,18,03,13,2.60
2011,04,18,03,14,2.60
2011,04,18,03,15,2.70
2011,04,18,03,16,2.70
2011,04,18,03,17,2.80
2011,04,18,03,18,2.90
2011,04,18,03,19,3.00
2011,04,18,03,20,3.00
2011,04,18,03,21,3.10
2011,04,18,03,22,3.10
2011,04,18,03,23,3.10
2011,04,18,03,24,3.10
2011,04,18,03,25,3.10
2011,04,18,03,26,3.10
2011,04,18,03,27,3.10
2011,04,18,03,28,3.10
2011,04,18,03,29,3.10
2011,04,18,03,30,3.10
2011,04,18,03,31,3.10
2011,04,18,03,32,3.10
2011,04,18,03,33,3.10
2011,04,18,03,34,3.10
2011,04,18,03,35,3.10
2011,04,18,03,36,3.00
2011,04,18,03,37,3.00
2011,04,18,03,38,3.00
2011,04,18,03,39,2.90
2011,04,18,03,40,2.90
2011,04,18,03,41,2.90
2011,04,18,03,42,2.90
2011,04,18,03,43,2.90
2011,04,18,03,44,2.90
2011,04,18,03,45,2.90
2011,04,18,03,46,2.90
2011,04,18,03,47,2.90
2011,04,18,03,48,2.90
2011,04,18,03,49,2.90
2011,04,18,03,50,2.90
2011,04,18,03,51,2.90
2011,04,18,03,52,2.90
2011,04,18,03,53,2.90
2011,04,18,03,54,3.00
2011,04,18,03,55,3.00
2011,04,18,03,56,3.10
2011,04,18,03,57,3.10
2011,04,18,03,58,3.10
2011,04,18,03,59,3.10
2011,04,18,04,00,3.10
2011,04,18,04,01,3.10
2011,04,18,04,02,3.10
2011,04,18,04,03,3.10
2011,04,18,04,04,3.10
2011,04,18,04,05,3.10
2011,04,18,04,06,3.10
2011,04,18,04,07,3.10
2011,04,18,04,08,3.10
2011,04,18,04,09,3.10
2011,04,18,04,10,3.00
2011,04,18,04,11,3.00
2011,04,18,04,12,3.00
2011,04,18,04,13,3.00
2011,04,18,04,14,3.00
2011,04,18,04,15,3.00
2011,04,18,04,16,3.00
2011,04,18,04,17,3.00
2011,04,18,04,18,3.00
2011,04,18,04,19,3.00
2011,04,18,04,20,3.00
2011,04,18,04,21,3.00
2011,04,18,04,22,3.00
2011,04,18,04,23,3.00
2011,04,18,04,24,3.00
2011,04,18,04,25,3.10
2011,04,18,04,26,3.10
2011,04,18,04,27,3.10
2011,04,18,04,28,3.10
2011,04,18,04,29,3.20
2011,04,18,04,30,3.20
2011,04,18,04,31,3.20
2011,04,18,04,32,3.20
2011,04,18,04,33,3.20
2011,04,18,04,34,3.30
2011,04,18,04,35,3.30
2011,04,18,04,36,3.30
2011,04,18,04,37,3.30
2011,04,18,04,38,3.20
2011,04,18,04,39,3.20
2011,04,18,04,40,3.20
2011,04,18,04,41,3.20
2011,04,18,04,42,3.20
2011,04,18,04,43,3.20
2011,04,18,04,44,3.20
2011,04,18,04,45,3.20
2011,04,18,04,46,3.20
2011,04,18,04,47,3.20
2011,04,18,04,48,3.20
2011,04,18,04,49,3.20
2011,04,18,04,50,3.20
2011,04,18,04,51,3.20
2011,04,18,04,52,3.30
2011,04,18,04,53,3.30
2011,04,18,04,54,3.40
2011,04,18,04,55,3.40
2011,04,18,04,56,3.40
2011,04,18,04,57,3.40
2011,04,18,04,58,3.40
2011,04,18,04,59,3.50
2011,04,18,05,00,3.50
2011,04,18,05,01,3.60
2011,04,18,05,02,3.70
2011,04,18,05,03,3.80
2011,04,18,05,04,3.80
2011,04,18,05,05,3.90
2011,04,18,05,06,3.90
2011,04,18,05,07,4.00
2011,04,18,05,08,4.10
2011,04,18,05,09,4.10
2011,04,18,05,10,4.10
2011,04,18,05,11,4.10
2011,04,18,05,12,4.10
2011,04,18,05,13,4.10
2011,04,18,05,14,4.10
2011,04,18,05,15,4.10
2011,04,18,05,16,4.10
2011,04,18,05,17,4.10
2011,04,18,05,18,4.10
2011,04,18,05,19,4.10
2011,04,18,05,20,4.20
2011,04,18,05,21,4.20
2011,04,18,05,22,4.20
2011,04,18,05,23,4.20
2011,04,18,05,24,4.30
2011,04,18,05,25,4.30
2011,04,18,05,26,4.30
2011,04,18,05,27,4.30
2011,04,18,05,28,4.20
2011,04,18,05,29,4.20
2011,04,18,05,30,4.20
2011,04,18,05,31,4.20
2011,04,18,05,32,4.20
2011,04,18,05,33,4.20
2011,04,18,05,34,4.20
2011,04,18,05,35,4.20
2011,04,18,05,36,4.20
2011,04,18,05,37,4.20
2011,04,18,05,38,4.20
2011,04,18,05,39,4.20
2011,04,18,05,40,4.20
2011,04,18,05,41,4.20
2011,04,18,05,42,4.20
2011,04,18,05,43,4.20
2011,04,18,05,44,4.20
2011,04,18,05,45,4.20
2011,04,18,05,46,4.30
2011,04,18,05,47,4.30
2011,04,18,05,48,4.30
2011,04,18,05,49,4.30
2011,04,18,05,50,4.30
2011,04,18,05,51,4.30
2011,04,18,05,52,4.30
2011,04,18,05,53,4.30
2011,04,18,05,54,4.30
2011,04,18,05,55,4.30
2011,04,18,05,56,4.30
2011,04,18,05,57,4.30
2011,04,18,05,58,4.30
2011,04,18,05,59,4.30
2011,04,18,06,00,4.30
2011,04,18,06,01,4.30
2011,04,18,06,02,4.30
2011,04,18,06,03,4.20
2011,04,18,06,04,4.20
2011,04,18,06,05,4.20
2011,04,18,06,06,4.20
2011,04,18,06,07,4.30
2011,04,18,06,08,4.30
2011,04,18,06,09,4.30
2011,04,18,06,10,4.30
2011,04,18,06,11,4.30
2011,04,18,06,12,4.30
2011,04,18,06,13,4.30
2011,04,18,06,14,4.40
2011,04,18,06,15,4.40
2011,04,18,06,16,4.50
2011,04,18,06,17,4.50
2011,04,18,06,18,4.60
2011,04,18,06,19,4.60
2011,04,18,06,20,4.60
2011,04,18,06,21,4.60
2011,04,18,06,22,4.70
2011,04,18,06,23,4.70
2011,04,18,06,24,4.70
2011,04,18,06,25,4.80
2011,04,18,06,26,4.80
2011,04,18,06,27,4.80
2011,04,18,06,28,4.80
2011,04,18,06,29,4.80
2011,04,18,06,32,4.80
2011,04,18,06,33,4.90
2011,04,18,06,34,4.90
2011,04,18,06,35,4.90
2011,04,18,06,36,4.90
2011,04,18,06,37,4.90
2011,04,18,06,38,4.90
2011,04,18,06,39,4.90
2011,04,18,06,40,4.90
2011,04,18,06,41,4.90
2011,04,18,06,42,4.90
2011,04,18,06,43,4.90
2011,04,18,06,44,4.90
2011,04,18,06,45,4.90
2011,04,18,06,46,4.90
2011,04,18,06,47,4.90
2011,04,18,06,48,4.90
2011,04,18,06,49,4.90
2011,04,18,06,50,4.90
2011,04,18,06,51,4.90
2011,04,18,06,52,4.90
2011,04,18,06,53,4.90
2011,04,18,06,54,4.90
2011,04,18,06,55,4.90
2011,04,18,06,56,4.90
2011,04,18,06,57,4.90
2011,04,18,06,58,4.90
2011,04,18,06,59,4.90
2011,04,18,07,00,4.80
2011,04,18,07,01,4.80
2011,04,18,07,02,4.80
2011,04,18,07,03,4.80
2011,04,18,07,04,4.80
2011,04,18,07,05,4.80
2011,04,18,07,06,4.80
2011,04,18,07,07,4.80
2011,04,18,07,08,4.80
2011,04,18,07,09,4.80
2011,04,18,07,10,4.80
2011,04,18,07,11,4.80
2011,04,18,07,12,4.80
2011,04,18,07,13,4.80
2011,04,18,07,14,4.80
2011,04,18,07,15,4.80
2011,04,18,07,16,4.80
2011,04,18,07,17,4.80
2011,04,18,07,18,4.80
2011,04,18,07,19,4.80
2011,04,18,07,20,4.80
2011,04,18,07,21,4.80
2011,04,18,07,22,4.80
2011,04,18,07,23,4.80
2011,04,18,07,24,4.80
2011,04,18,07,25,4.80
2011,04,18,07,26,4.80
2011,04,18,07,27,4.80
2011,04,18,07,28,4.80
2011,04,18,07,29,4.80
2011,04,18,07,30,4.80
2011,04,18,07,31,4.90
2011,04,18,07,32,4.90
2011,04,18,07,33,4.90
2011,04,18,07,34,5.00
2011,04,18,07,35,5.00
2011,04,18,07,36,5.10
2011,04,18,07,37,5.10
2011,04,18,07,38,5.10
2011,04,18,07,39,5.10
2011,04,18,07,40,5.10
2011,04,18,07,41,5.10
2011,04,18,07,42,5.20
2011,04,18,07,43,5.20
2011,04,18,07,44,5.20
2011,04,18,07,45,5.20
2011,04,18,07,46,5.20
2011,04,18,07,47,5.20
2011,04,18,07,48,5.20
2011,04,18,07,49,5.20
2011,04,18,07,50,5.30
2011,04,18,07,51,5.30
2011,04,18,07,52,5.30
2011,04,18,07,53,5.30
2011,04,18,07,54,5.30
2011,04,18,07,55,5.40
2011,04,18,07,56,5.40
2011,04,18,07,57,5.40
2011,04,18,07,58,5.40
2011,04,18,07,59,5.50
2011,04,18,08,00,5.60
2011,04,18,08,01,5.60
2011,04,18,08,02,5.70
2011,04,18,08,03,5.80
2011,04,18,08,04,5.90
2011,04,18,08,05,5.90
2011,04,18,08,06,6.00
2011,04,18,08,07,6.00
2011,04,18,08,08,6.10
2011,04,18,08,09,6.10
2011,04,18,08,10,6.20
2011,04,18,08,11,6.30
2011,04,18,08,12,6.30
2011,04,18,08,13,6.40
2011,04,18,08,14,6.40
2011,04,18,08,15,6.50
2011,04,18,08,16,6.50
2011,04,18,08,17,6.60
2011,04,18,08,18,6.60
2011,04,18,08,19,6.70
2011,04,18,08,20,6.80
2011,04,18,08,21,6.80
2011,04,18,08,22,6.90
2011,04,18,08,23,6.90
2011,04,18,08,24,6.90
2011,04,18,08,25,7.00
2011,04,18,08,26,7.00
2011,04,18,08,27,7.10
2011,04,18,08,28,7.10
2011,04,18,08,29,7.10
2011,04,18,08,30,7.10
2011,04,18,08,31,7.20
2011,04,18,08,32,7.20
2011,04,18,08,33,7.20
2011,04,18,08,34,7.20
2011,04,18,08,35,7.20
2011,04,18,08,36,7.20
2011,04,18,08,37,7.20
2011,04,18,08,38,7.20
2011,04,18,08,41,7.30
2011,04,18,08,42,7.30
2011,04,18,08,43,7.30
2011,04,18,08,44,7.30
2011,04,18,08,45,7.30
2011,04,18,08,46,7.30
2011,04,18,08,47,7.30
2011,04,18,08,48,7.30
2011,04,18,08,49,7.30
2011,04,18,08,50,7.40
2011,04,18,08,51,7.40
2011,04,18,08,52,7.40
2011,04,18,08,53,7.40
2011,04,18,08,54,7.50
2011,04,18,08,55,7.50
2011,04,18,08,56,7.60
2011,04,18,08,57,7.60
2011,04,18,08,58,7.60
2011,04,18,08,59,7.70
2011,04,18,09,00,7.70
2011,04,18,09,01,7.70
2011,04,18,09,02,7.70
2011,04,18,09,03,7.70
2011,04,18,09,04,7.80
2011,04,18,09,05,7.80
2011,04,18,09,06,7.80
2011,04,18,09,07,7.80
2011,04,18,09,08,7.90
2011,04,18,09,09,7.90
2011,04,18,09,10,7.90
2011,04,18,09,11,7.90
2011,04,18,09,12,7.90
2011,04,18,09,13,7.90
2011,04,18,09,14,7.90
2011,04,18,09,15,7.90
2011,04,18,09,16,7.90
2011,04,18,09,17,7.80
2011,04,18,09,18,7.80
2011,04,18,09,19,7.80
2011,04,18,09,20,7.80
2011,04,18,09,21,7.80
2011,04,18,09,22,7.90
2011,04,18,09,23,7.90
2011,04,18,09,26,7.90
2011,04,18,09,27,7.90
2011,04,18,09,28,7.90
2011,04,18,09,29,7.90
2011,04,18,09,30,8.00
2011,04,18,09,31,8.00
2011,04,18,09,32,8.10
2011,04,18,09,33,8.10
2011,04,18,09,34,8.20
2011,04,18,09,35,8.20
2011,04,18,09,36,8.20
2011,04,18,09,37,8.20
2011,04,18,09,38,8.20
2011,04,18,09,39,8.30
2011,04,18,09,40,8.30
2011,04,18,09,41,8.30
2011,04,18,09,42,8.30
2011,04,18,09,43,8.30
2011,04,18,09,44,8.30
2011,04,18,09,45,8.30
2011,04,18,09,46,8.30
2011,04,18,09,47,8.40
2011,04,18,09,48,8.40
2011,04,18,09,49,8.40
2011,04,18,09,50,8.40
2011,04,18,09,51,8.40
2011,04,18,09,52,8.40
2011,04,18,09,53,8.40
2011,04,18,09,54,8.50
2011,04,18,09,55,8.50
2011,04,18,09,56,8.50
2011,04,18,09,57,8.50
2011,04,18,09,58,8.50
2011,04,18,09,59,8.60
2011,04,18,10,00,8.70
2011,04,18,10,01,8.70
2011,04,18,10,02,8.80
2011,04,18,10,03,8.80
2011,04,18,10,04,8.90
2011,04,18,10,05,8.90
2011,04,18,10,06,8.90
2011,04,18,10,07,8.90
2011,04,18,10,08,8.90
2011,04,18,10,09,9.00
2011,04,18,10,10,9.00
2011,04,18,10,11,9.10
2011,04,18,10,12,9.10
2011,04,18,10,16,9.50
2011,04,18,10,17,9.40
2011,04,18,10,18,9.30
2011,04,18,10,19,9.30
2011,04,18,10,20,9.30
2011,04,18,10,21,9.20
2011,04,18,10,22,9.20
2011,04,18,10,23,9.20
2011,04,18,10,24,9.20
2011,04,18,10,25,9.10
2011,04,18,10,26,9.10
2011,04,18,10,27,9.10
2011,04,18,10,28,9.10
2011,04,18,10,29,9.20
2011,04,18,10,30,9.30
2011,04,18,10,31,9.30
2011,04,18,10,32,9.30
2011,04,18,10,33,9.40
2011,04,18,10,34,9.30
2011,04,18,10,35,9.30
2011,04,18,10,36,9.30
2011,04,18,10,37,9.30
2011,04,18,10,38,9.30
2011,04,18,10,39,9.40
2011,04,18,10,40,9.50
2011,04,18,10,41,9.60
2011,04,18,10,42,9.70
2011,04,18,10,43,9.70
2011,04,18,10,44,9.70
2011,04,18,10,45,9.70
2011,04,18,10,46,9.80
2011,04,18,10,47,9.80
2011,04,18,10,48,9.80
2011,04,18,10,49,9.80
2011,04,18,10,50,9.80
2011,04,18,10,51,9.80
2011,04,18,10,52,9.70
2011,04,18,10,53,9.70
2011,04,18,10,54,9.80
2011,04,18,10,55,9.80
2011,04,18,10,56,9.90
2011,04,18,10,57,9.90
2011,04,18,10,58,10.00
2011,04,18,10,59,10.00
2011,04,18,11,00,10.00
2011,04,18,11,01,10.00
2011,04,18,11,02,9.90
2011,04,18,11,03,9.80
2011,04,18,11,04,9.70
2011,04,18,11,05,9.60
2011,04,18,11,06,9.60
2011,04,18,11,07,9.60
2011,04,18,11,08,9.70
2011,04,18,11,09,9.70
2011,04,18,11,10,9.80
2011,04,18,11,11,9.90
2011,04,18,11,12,9.90
2011,04,18,11,13,9.90
2011,04,18,11,14,10.00
2011,04,18,11,15,10.00
2011,04,18,11,16,10.00
2011,04,18,11,17,9.90
2011,04,18,11,18,9.90
2011,04,18,11,19,9.90
2011,04,18,11,20,9.80
2011,04,18,11,21,9.90
2011,04,18,11,22,9.90
2011,04,18,11,23,9.90
2011,04,18,11,24,9.90
2011,04,18,11,25,9.90
2011,04,18,11,26,9.90
2011,04,18,11,27,9.90
2011,04,18,11,28,9.90
2011,04,18,11,29,9.90
2011,04,18,11,30,10.00
2011,04,18,11,31,10.10
2011,04,18,11,32,10.10
2011,04,18,11,33,10.10
2011,04,18,11,34,10.00
2011,04,18,11,35,9.90
2011,04,18,11,36,9.80
2011,04,18,11,37,9.70
2011,04,18,11,38,9.70
2011,04,18,11,39,9.80
2011,04,18,11,40,9.80
2011,04,18,11,41,9.80
2011,04,18,11,42,9.90
2011,04,18,11,43,9.90
2011,04,18,11,44,10.00
2011,04,18,11,45,10.00
2011,04,18,11,46,10.10
2011,04,18,11,47,10.20
2011,04,18,11,48,10.30
2011,04,18,11,49,10.40
2011,04,18,11,50,10.40
2011,04,18,11,51,10.40
2011,04,18,11,52,10.40
2011,04,18,11,53,10.40
2011,04,18,11,54,10.40
2011,04,18,11,55,10.40
2011,04,18,11,56,10.40
2011,04,18,11,57,10.50
2011,04,18,11,58,10.50
2011,04,18,11,59,10.70
2011,04,18,12,00,10.80
2011,04,18,12,01,10.90
2011,04,18,12,02,11.00
2011,04,18,12,03,11.10
2011,04,18,12,04,11.20
2011,04,18,12,05,11.30
2011,04,18,12,06,11.40
2011,04,18,12,07,11.50
2011,04,18,12,08,11.60
2011,04,18,12,09,11.50
2011,04,18,12,10,11.50
2011,04,18,12,11,11.50
2011,04,18,12,12,11.50
2011,04,18,12,13,11.40
2011,04,18,12,14,11.50
2011,04,18,12,15,11.50
2011,04,18,12,16,11.50
2011,04,18,12,17,11.40
2011,04,18,12,18,11.40
2011,04,18,12,19,11.20
2011,04,18,12,20,11.10
2011,04,18,12,21,11.00
2011,04,18,12,22,11.00
2011,04,18,12,23,10.90
2011,04,18,12,24,10.90
2011,04,18,12,25,11.00
2011,04,18,12,26,11.10
2011,04,18,12,27,11.10
2011,04,18,12,28,11.20
2011,04,18,12,29,11.20
2011,04,18,12,30,11.20
2011,04,18,12,31,11.20
2011,04,18,12,32,11.20
2011,04,18,12,33,11.30
2011,04,18,12,34,11.50
2011,04,18,12,35,11.60
2011,04,18,12,36,11.70
2011,04,18,12,37,11.80
2011,04,18,12,38,11.70
2011,04,18,12,39,11.70
2011,04,18,12,40,11.60
2011,04,18,12,43,11.30
2011,04,18,12,44,11.30
2011,04,18,12,45,11.20
2011,04,18,12,46,11.20
2011,04,18,12,47,11.10
2011,04,18,12,48,11.10
2011,04,18,12,49,11.10
2011,04,18,12,50,11.30
2011,04,18,12,51,11.30
2011,04,18,12,52,11.30
2011,04,18,12,53,11.30
2011,04,18,12,54,11.30
2011,04,18,12,55,11.30
2011,04,18,12,56,11.40
2011,04,18,12,57,11.30
2011,04,18,12,58,11.30
2011,04,18,12,59,11.40
2011,04,18,13,00,11.50
2011,04,18,13,01,11.50
2011,04,18,13,02,11.60
2011,04,18,13,03,11.60
2011,04,18,13,04,11.70
2011,04,18,13,05,11.70
2011,04,18,13,06,11.70
2011,04,18,13,07,11.70
2011,04,18,13,08,11.60
2011,04,18,13,09,11.60
2011,04,18,13,10,11.50
2011,04,18,13,11,11.50
2011,04,18,13,12,11.50
2011,04,18,13,13,11.60
2011,04,18,13,14,11.70
2011,04,18,13,15,11.70
2011,04,18,13,16,11.70
2011,04,18,13,17,11.70
2011,04,18,13,18,11.70
2011,04,18,13,19,11.80
2011,04,18,13,20,11.90
2011,04,18,13,21,11.90
2011,04,18,13,22,11.90
2011,04,18,13,23,11.80
2011,04,18,13,24,11.80
2011,04,18,13,25,11.90
2011,04,18,13,26,11.90
2011,04,18,13,27,12.00
2011,04,18,13,28,12.00
2011,04,18,13,29,12.00
2011,04,18,13,30,12.00
2011,04,18,13,31,12.00
2011,04,18,13,32,12.00
2011,04,18,13,33,12.00
2011,04,18,13,34,12.00
2011,04,18,13,35,12.10
2011,04,18,13,36,12.10
2011,04,18,13,37,12.10
2011,04,18,13,38,12.10
2011,04,18,13,39,12.10
2011,04,18,13,40,12.10
2011,04,18,13,41,12.20
2011,04,18,13,42,12.20
2011,04,18,13,43,12.20
2011,04,18,13,44,12.10
2011,04,18,13,45,12.10
2011,04,18,13,46,12.00
2011,04,18,13,47,12.00
2011,04,18,13,48,11.90
2011,04,18,13,49,12.00
2011,04,18,13,50,12.10
2011,04,18,13,51,12.10
2011,04,18,13,52,12.10
2011,04,18,13,53,12.20
2011,04,18,13,54,12.30
2011,04,18,13,55,12.30
2011,04,18,13,56,12.30
2011,04,18,13,57,12.30
2011,04,18,13,58,12.30
2011,04,18,13,59,12.30
2011,04,18,14,00,12.30
2011,04,18,14,01,12.40
2011,04,18,14,02,12.50
2011,04,18,14,03,12.60
2011,04,18,14,04,12.70
2011,04,18,14,05,12.70
2011,04,18,14,06,12.70
2011,04,18,14,07,12.60
2011,04,18,14,08,12.50
2011,04,18,14,09,12.50
2011,04,18,14,10,12.50
2011,04,18,14,11,12.60
2011,04,18,14,12,12.70
2011,04,18,14,13,12.80
2011,04,18,14,14,12.70
2011,04,18,14,15,12.60
2011,04,18,14,16,12.60
2011,04,18,14,17,12.50
2011,04,18,14,18,12.50
2011,04,18,14,19,12.50
2011,04,18,14,20,12.50
2011,04,18,14,21,12.50
2011,04,18,14,22,12.60
2011,04,18,14,23,12.70
2011,04,18,14,24,12.80
2011,04,18,14,25,12.90
2011,04,18,14,26,12.90
2011,04,18,14,27,12.90
2011,04,18,14,28,12.80
2011,04,18,14,29,12.80
2011,04,18,14,30,12.70
2011,04,18,14,31,12.70
2011,04,18,14,32,12.60
2011,04,18,14,33,12.60
2011,04,18,14,34,12.60
2011,04,18,14,35,12.60
2011,04,18,14,36,12.60
2011,04,18,14,37,12.60
2011,04,18,14,38,12.70
2011,04,18,14,39,12.80
2011,04,18,14,40,12.80
2011,04,18,14,41,12.70
2011,04,18,14,42,12.70
2011,04,18,14,43,12.70
2011,04,18,14,44,12.60
2011,04,18,14,45,12.60
2011,04,18,14,46,12.60
2011,04,18,14,47,12.50
2011,04,18,14,48,12.50
2011,04,18,14,49,12.60
2011,04,18,14,50,12.60
2011,04,18,14,51,12.60
2011,04,18,14,52,12.70
2011,04,18,14,53,12.70
2011,04,18,14,54,12.70
2011,04,18,14,55,12.80
2011,04,18,14,56,12.80
2011,04,18,14,57,12.80
2011,04,18,14,58,12.80
2011,04,18,14,59,12.80
2011,04,18,15,00,13.00
2011,04,18,15,01,13.10
2011,04,18,15,02,13.10
2011,04,18,15,03,13.10
2011,04,18,15,04,13.10
2011,04,18,15,05,13.10
2011,04,18,15,06,13.10
2011,04,18,15,07,13.10
2011,04,18,15,08,13.00
2011,04,18,15,09,12.90
2011,04,18,15,10,12.90
2011,04,18,15,11,12.90
2011,04,18,15,12,12.80
2011,04,18,15,13,12.80
2011,04,18,15,14,12.60
2011,04,18,15,15,12.50
2011,04,18,15,16,12.40
2011,04,18,15,17,12.30
2011,04,18,15,18,12.20
2011,04,18,15,19,12.10
2011,04,18,15,20,11.90
2011,04,18,15,21,11.90
2011,04,18,15,22,11.90
2011,04,18,15,23,12.00
2011,04,18,15,24,12.10
2011,04,18,15,25,12.20
2011,04,18,15,26,12.20
2011,04,18,15,27,12.30
2011,04,18,15,28,12.30
2011,04,18,15,29,12.40
2011,04,18,15,30,12.50
2011,04,18,15,31,12.50
2011,04,18,15,32,12.60
2011,04,18,15,33,12.70
2011,04,18,15,34,12.70
2011,04,18,15,35,12.70
2011,04,18,15,36,12.80
2011,04,18,15,37,12.80
2011,04,18,15,38,12.80
2011,04,18,15,39,12.80
2011,04,18,15,40,12.80
2011,04,18,15,41,12.70
2011,04,18,15,42,12.70
2011,04,18,15,43,12.60
2011,04,18,15,44,12.60
2011,04,18,15,45,12.50
2011,04,18,15,46,12.40
2011,04,18,15,47,12.40
2011,04,18,15,48,12.30
2011,04,18,15,49,12.30
2011,04,18,15,50,12.30
2011,04,18,15,51,12.30
2011,04,18,15,52,12.30
2011,04,18,15,53,12.40
2011,04,18,15,54,12.50
2011,04,18,15,55,12.50
2011,04,18,15,56,12.50
2011,04,18,15,57,12.60
2011,04,18,15,58,12.60
2011,04,18,15,59,12.60
2011,04,18,16,00,12.60
2011,04,18,16,01,12.60
2011,04,18,16,02,12.50
2011,04,18,16,03,12.40
2011,04,18,16,04,12.30
2011,04,18,16,05,12.20
2011,04,18,16,06,12.10
2011,04,18,16,07,11.90
2011,04,18,16,08,11.70
2011,04,18,16,09,11.60
2011,04,18,16,10,11.50
2011,04,18,16,11,11.40
2011,04,18,16,12,11.30
2011,04,18,16,13,11.20
2011,04,18,16,14,11.10
2011,04,18,16,15,11.00
2011,04,18,16,16,10.90
2011,04,18,16,17,10.90
2011,04,18,16,18,10.90
2011,04,18,16,19,11.00
2011,04,18,16,20,11.10
2011,04,18,16,21,11.20
2011,04,18,16,22,11.20
2011,04,18,16,23,11.20
2011,04,18,16,24,11.20
2011,04,18,16,25,11.10
2011,04,18,16,26,11.10
2011,04,18,16,27,11.10
2011,04,18,16,28,11.00
2011,04,18,16,29,11.00
2011,04,18,16,30,10.90
2011,04,18,16,31,10.80
2011,04,18,16,32,10.80
2011,04,18,16,33,10.80
2011,04,18,16,34,10.70
2011,04,18,16,35,10.60
2011,04,18,16,36,10.60
2011,04,18,16,37,10.60
2011,04,18,16,38,10.50
2011,04,18,16,39,10.50
2011,04,18,16,40,10.50
2011,04,18,16,41,10.40
2011,04,18,16,42,10.40
2011,04,18,16,43,10.40
2011,04,18,16,44,10.40
2011,04,18,16,47,10.20
2011,04,18,16,48,10.20
2011,04,18,16,49,10.30
2011,04,18,16,50,10.30
2011,04,18,16,51,10.40
2011,04,18,16,52,10.50
2011,04,18,16,53,10.50
2011,04,18,16,54,10.70
2011,04,18,16,55,10.70
2011,04,18,16,56,10.80
2011,04,18,16,57,10.80
2011,04,18,16,58,10.80
2011,04,18,16,59,10.80
2011,04,18,17,00,10.80
2011,04,18,17,01,10.80
2011,04,18,17,02,10.80
2011,04,18,17,03,10.80
2011,04,18,17,04,10.90
2011,04,18,17,05,10.90
2011,04,18,17,06,10.80
2011,04,18,17,07,10.80
2011,04,18,17,08,10.90
2011,04,18,17,09,10.90
2011,04,18,17,10,10.80
2011,04,18,17,11,10.80
2011,04,18,17,12,10.80
2011,04,18,17,13,10.70
2011,04,18,17,14,10.70
2011,04,18,17,15,10.50
2011,04,18,17,16,10.40
2011,04,18,17,17,10.30
2011,04,18,17,18,10.30
2011,04,18,17,19,10.20
2011,04,18,17,20,10.20
2011,04,18,17,21,10.10
2011,04,18,17,22,10.10
2011,04,18,17,23,10.10
2011,04,18,17,24,10.10
2011,04,18,17,25,10.10
2011,04,18,17,26,10.10
2011,04,18,17,27,10.10
2011,04,18,17,28,10.10
2011,04,18,17,29,10.10
2011,04,18,17,30,10.10
2011,04,18,17,31,10.10
2011,04,18,17,32,10.20
2011,04,18,17,33,10.20
2011,04,18,17,34,10.20
2011,04,18,17,35,10.20
2011,04,18,17,36,10.20
2011,04,18,17,37,10.10
2011,04,18,17,38,10.00
2011,04,18,17,39,10.00
2011,04,18,17,40,10.00
2011,04,18,17,41,10.00
2011,04,18,17,42,10.00
2011,04,18,17,43,10.10
2011,04,18,17,44,10.10
2011,04,18,17,45,10.10
2011,04,18,17,46,10.20
2011,04,18,17,47,10.20
2011,04,18,17,48,10.30
2011,04,18,17,49,10.30
2011,04,18,17,50,10.30
2011,04,18,17,51,10.30
2011,04,18,17,52,10.30
2011,04,18,17,53,10.30
2011,04,18,17,54,10.30
2011,04,18,17,55,10.30
2011,04,18,17,56,10.30
2011,04,18,17,57,10.30
2011,04,18,17,58,10.30
2011,04,18,17,59,10.30
2011,04,18,18,00,10.30
2011,04,18,18,01,10.20
2011,04,18,18,02,10.20
2011,04,18,18,03,10.20
2011,04,18,18,04,10.10
2011,04,18,18,05,10.10